Location: Newark
(40.3500°N, 15.2333°E)
Time: 19:32:34
(UTC+00:00)

Vanguard 2 - Pass Details

Date: 01 February 2020
Orbit: 552 x 2939 km, 32.9° (Epoch: 22 February)

Event Time Altitude Azimuth Distance (km) Brightness Sun altitude
Rises 04:56:12 0° 201° (SSW) 6,602 12.2 -14.1°
Reaches altitude 10° 05:01:47 10° 190° (S) 5,723 12.0 -13.1°
Maximum altitude 05:14:35 25° 144° (SE) 4,500 12.0 -10.7°
Drops below altitude 10° 05:26:05 10° 97° (E) 5,152 13.4 -8.6°
Sets 05:30:39 0° 85° (E) 5,847 13.5 -7.7°
